Current weather by "City, St" or "zip code"  
 
Advertise Here

Current Conditions: York, York Municipal Airport, NE

Mostly Cloudy


57.0 F

Last Updated on May 12 2021, 11:55 am CDT
Humidity: 59%
Wind Speed: 6.9 mph
Barometer 30.42 in
Dewpoint: 42.8 F
Visibility: 10.00 mi
Precip: --
Heat Index: NA
Wind Chill: 56 F
Current conditions at:

York, York Municipal Airport, NE (KJYR)

Lat: 40.89667 Lon: 97.62278

Local Radar Image active severe weather and emergency alerts image image weather storm and storm spotter reports image weather observation monitoring service image
Local
Radar
Active
Alerts
Storm Reports Obs
Monitoring

Sign-up For Email & Text Message Weather Alert Notification Services


Advertise Here

Observation History for York, York Municipal Airport, NE


Time Wind
(mph)
Vis
(mi)
Weather Precip (in) Temperature (F) Relative
Humidity
Wind
Chill
(F)
Heat
Index
(F)
Pressure
Air Dwpt altimeter
(in)
sea level
(mb)
Rmks
11:55 am CDT 6.9 10.00 Mostly Cloudy -- 57.0 42.8 59% 56 NA 30.42 M
10:55 am CDT S 11.5 9.00 Mostly Cloudy -- 57.0 44.6 63% 54 NA 30.42 M
10:35 am CDT S 10.4 10.00 Mostly Cloudy -- 55.0 42.8 63% 52 NA 30.42 M
9:55 am CDT SE 9.2 10.00 Fair -- 55.0 42.8 63% 52 NA 30.43 M
9:35 am CDT SE 8.1 10.00 Fair -- 55.0 42.8 63% 53 NA 30.43 M
8:55 am CDT SE 8.1 10.00 Fair -- 52.0 41.0 67% 49 NA 30.42 M
7:55 am CDT SE 6.9 10.00 Fair -- 48.0 41.0 76% 45 NA 30.41 M
7:35 am CDT SE 6.9 10.00 Fair -- 46.0 39.2 76% 42 NA 30.41 M
6:55 am CDT E 4.6 10.00 Fair -- 41.0 35.6 81% 38 NA 30.40 M
5:55 am CDT N 0.0 10.00 Fair -- 41.0 35.6 81% NA NA 30.38 M
4:55 am CDT N 0.0 10.00 Fair -- 39.0 35.6 87% NA NA 30.37 M
4:35 am CDT N 0.0 10.00 Fair -- 39.0 35.6 87% NA NA 30.37 M
3:55 am CDT N 0.0 10.00 Fair -- 41.0 35.6 81% NA NA 30.36 M
2:55 am CDT N 0.0 10.00 Fair -- 43.0 35.6 76% NA NA 30.37 M
1:55 am CDT N 0.0 10.00 Fair -- 45.0 35.6 71% NA NA 30.37 M
12:55 am CDT N 0.0 10.00 Fair -- 43.0 35.6 76% NA NA 30.36 M
11:55 pm CDT NE 4.6 10.00 Fair -- 43.0 35.6 76% 40 NA 30.36 M
10:55 pm CDT N 0.0 10.00 Fair -- 45.0 35.6 71% NA NA 30.36 M
10:35 pm CDT N 0.0 10.00 Fair -- 45.0 37.4 76% NA NA 30.36 M
9:55 pm CDT NE 3.5 10.00 Fair -- 46.0 35.6 66% NA NA 30.34 M
8:55 pm CDT NE 5.8 10.00 Fair -- 50.0 35.6 58% 48 NA 30.32 M
7:55 pm CDT N 6.9 10.00 Fair -- 54.0 33.8 47% 52 NA 30.30 M
6:55 pm CDT N 9.2 10.00 Fair -- 55.0 33.8 44% 52 NA 30.28 M
5:55 pm CDT NE 10.4 10.00 A Few Clouds -- 55.0 33.8 44% 52 NA 30.28 M

Regional Weather Observation


Aurora, Aurora Municipal Airport, NE (KAUH)

Overcast
62.0 F

Columbus, Columbus Municipal Airport, NE (KOLU)

Overcast
59.0 F

Grand Island, Central Nebraska Regional Airport, NE (KGRI)

Partly Cloudy
61.0 F

Albion Municipal Airport, NE (KBVN)

Mostly Cloudy
60.0 F

Hastings, Hastings Municipal Airport, NE (KHSI)

A Few Clouds
59.0 F

Norfolk, Stefan Memorial Airport, NE (KOFK)

A Few Clouds
62.0 F
Advertise Here

Advertise Here